{"data":{"norad_id":54132,"epoch":"2026-09-20T00:27:46.245600Z","epoch_age_seconds":67370,"freshness":"FRESH","line1":"1 54132U 22138V   26263.01928525  .00000111  00000+0  24445-3 0  9996","line2":"2 54132  87.9106 286.0754 0001925  96.3838 263.7514 13.19726821189336","mean_motion":13.19726821,"eccentricity":0.0001925,"inclination_deg":87.9106,"raan_deg":286.0754,"arg_perigee_deg":96.3838,"mean_anomaly_deg":263.7514,"bstar":0.00024445,"rev_number":18933,"period_min":109.11349054109,"perigee_km":1184.307543189,"apogee_km":1187.2196449177,"semimajor_km":7563.9005940533,"source":"CELESTRAK","updated_at":"2026-09-20T09:00:44.719076Z"}}